Вернуться в каталог

STARLINK-5980

АктивенСвязьSSO
NORAD 56326·PAYLOAD·🇺🇸 United States

Запущен Apr 27, 2023 с Vandenberg Space Force Base

Loading…

Ближайшие Пролёты (ближайшие 24 часа)

TLE

СвежийSource: CelesTrak SupGP

Эпоха: Sep 15, 2026, 01:50 UTC

1 56326C 23058K   26258.07687500  .00545140  00000+0  30640-1 0  2586
2 56326  97.2851 252.1685 0001631  85.0659 189.1729 15.13106653    18

Отслеживайте STARLINK-5980 в реальном времени с AllMySat

Download on the App Store